Year,Month,Day,Hour,Minute,Value (Times are PST for windgust in km/hr)
2010,11,15,00,00,4.80
2010,11,15,00,01,3.20
2010,11,15,00,02,4.80
2010,11,15,00,03,4.80
2010,11,15,00,04,4.80
2010,11,15,00,05,6.40
2010,11,15,00,06,4.80
2010,11,15,00,07,6.40
2010,11,15,00,08,4.80
2010,11,15,00,09,4.80
2010,11,15,00,10,4.80
2010,11,15,00,11,4.80
2010,11,15,00,12,6.40
2010,11,15,00,13,6.40
2010,11,15,00,14,4.80
2010,11,15,00,15,4.80
2010,11,15,00,16,4.80
2010,11,15,00,17,4.80
2010,11,15,00,18,4.80
2010,11,15,00,19,4.80
2010,11,15,00,20,4.80
2010,11,15,00,21,4.80
2010,11,15,00,22,3.20
2010,11,15,00,23,0.00
2010,11,15,00,24,0.00
2010,11,15,00,25,3.20
2010,11,15,00,26,3.20
2010,11,15,00,27,3.20
2010,11,15,00,28,3.20
2010,11,15,00,29,3.20
2010,11,15,00,30,1.60
2010,11,15,00,31,0.00
2010,11,15,00,32,1.60
2010,11,15,00,33,0.00
2010,11,15,00,34,0.00
2010,11,15,00,35,0.00
2010,11,15,00,36,0.00
2010,11,15,00,37,0.00
2010,11,15,00,38,0.00
2010,11,15,00,39,0.00
2010,11,15,00,40,0.00
2010,11,15,00,41,0.00
2010,11,15,00,42,0.00
2010,11,15,00,43,0.00
2010,11,15,00,44,4.80
2010,11,15,00,45,6.40
2010,11,15,00,46,8.10
2010,11,15,00,47,8.10
2010,11,15,00,48,8.10
2010,11,15,00,49,8.10
2010,11,15,00,50,6.40
2010,11,15,00,51,6.40
2010,11,15,00,52,6.40
2010,11,15,00,53,6.40
2010,11,15,00,54,6.40
2010,11,15,00,55,6.40
2010,11,15,00,56,4.80
2010,11,15,00,57,6.40
2010,11,15,00,58,8.10
2010,11,15,00,59,8.10
2010,11,15,01,00,6.40
2010,11,15,01,01,6.40
2010,11,15,01,02,4.80
2010,11,15,01,03,6.40
2010,11,15,01,04,6.40
2010,11,15,01,05,6.40
2010,11,15,01,06,6.40
2010,11,15,01,07,6.40
2010,11,15,01,08,6.40
2010,11,15,01,09,6.40
2010,11,15,01,10,6.40
2010,11,15,01,11,4.80
2010,11,15,01,12,6.40
2010,11,15,01,13,4.80
2010,11,15,01,14,4.80
2010,11,15,01,15,3.20
2010,11,15,01,16,4.80
2010,11,15,01,17,4.80
2010,11,15,01,18,4.80
2010,11,15,01,19,3.20
2010,11,15,01,20,3.20
2010,11,15,01,21,4.80
2010,11,15,01,22,3.20
2010,11,15,01,23,4.80
2010,11,15,01,24,4.80
2010,11,15,01,25,3.20
2010,11,15,01,26,4.80
2010,11,15,01,27,4.80
2010,11,15,01,28,6.40
2010,11,15,01,29,6.40
2010,11,15,01,30,6.40
2010,11,15,01,31,4.80
2010,11,15,01,32,6.40
2010,11,15,01,33,4.80
2010,11,15,01,34,6.40
2010,11,15,01,35,6.40
2010,11,15,01,36,4.80
2010,11,15,01,37,6.40
2010,11,15,01,38,6.40
2010,11,15,01,39,4.80
2010,11,15,01,40,4.80
2010,11,15,01,41,4.80
2010,11,15,01,42,3.20
2010,11,15,01,43,3.20
2010,11,15,01,44,3.20
2010,11,15,01,45,3.20
2010,11,15,01,46,3.20
2010,11,15,01,47,3.20
2010,11,15,01,48,3.20
2010,11,15,01,49,4.80
2010,11,15,01,50,3.20
2010,11,15,01,51,3.20
2010,11,15,01,52,4.80
2010,11,15,01,53,4.80
2010,11,15,01,54,4.80
2010,11,15,01,55,4.80
2010,11,15,01,56,4.80
2010,11,15,01,57,6.40
2010,11,15,01,58,6.40
2010,11,15,01,59,4.80
2010,11,15,02,00,4.80
2010,11,15,02,01,3.20
2010,11,15,02,02,3.20
2010,11,15,02,03,4.80
2010,11,15,02,04,4.80
2010,11,15,02,05,4.80
2010,11,15,02,06,3.20
2010,11,15,02,07,3.20
2010,11,15,02,08,0.00
2010,11,15,02,09,4.80
2010,11,15,02,10,1.60
2010,11,15,02,11,3.20
2010,11,15,02,12,0.00
2010,11,15,02,13,0.00
2010,11,15,02,14,0.00
2010,11,15,02,15,0.00
2010,11,15,02,16,0.00
2010,11,15,02,17,0.00
2010,11,15,02,18,0.00
2010,11,15,02,19,0.00
2010,11,15,02,20,0.00
2010,11,15,02,21,0.00
2010,11,15,02,22,0.00
2010,11,15,02,23,0.00
2010,11,15,02,24,0.00
2010,11,15,02,25,0.00
2010,11,15,02,26,0.00
2010,11,15,02,27,0.00
2010,11,15,02,28,0.00
2010,11,15,02,29,0.00
2010,11,15,02,30,0.00
2010,11,15,02,31,0.00
2010,11,15,02,32,0.00
2010,11,15,02,33,0.00
2010,11,15,02,34,0.00
2010,11,15,02,35,0.00
2010,11,15,02,36,0.00
2010,11,15,02,37,0.00
2010,11,15,02,38,3.20
2010,11,15,02,39,3.20
2010,11,15,02,40,3.20
2010,11,15,02,41,3.20
2010,11,15,02,42,0.00
2010,11,15,02,43,0.00
2010,11,15,02,44,0.00
2010,11,15,02,45,0.00
2010,11,15,02,46,0.00
2010,11,15,02,47,0.00
2010,11,15,02,48,0.00
2010,11,15,02,49,0.00
2010,11,15,02,50,0.00
2010,11,15,02,51,3.20
2010,11,15,02,52,3.20
2010,11,15,02,53,3.20
2010,11,15,02,54,0.00
2010,11,15,02,55,0.00
2010,11,15,02,56,0.00
2010,11,15,02,57,0.00
2010,11,15,02,58,0.00
2010,11,15,02,59,0.00
2010,11,15,03,00,0.00
2010,11,15,03,01,0.00
2010,11,15,03,02,0.00
2010,11,15,03,03,0.00
2010,11,15,03,04,0.00
2010,11,15,03,05,0.00
2010,11,15,03,06,0.00
2010,11,15,03,07,0.00
2010,11,15,03,08,0.00
2010,11,15,03,09,0.00
2010,11,15,03,10,0.00
2010,11,15,03,11,0.00
2010,11,15,03,12,0.00
2010,11,15,03,13,0.00
2010,11,15,03,14,0.00
2010,11,15,03,15,0.00
2010,11,15,03,16,0.00
2010,11,15,03,17,0.00
2010,11,15,03,18,0.00
2010,11,15,03,19,0.00
2010,11,15,03,20,0.00
2010,11,15,03,21,0.00
2010,11,15,03,22,0.00
2010,11,15,03,23,0.00
2010,11,15,03,24,0.00
2010,11,15,03,25,0.00
2010,11,15,03,26,0.00
2010,11,15,03,27,0.00
2010,11,15,03,28,0.00
2010,11,15,03,29,0.00
2010,11,15,03,30,0.00
2010,11,15,03,31,0.00
2010,11,15,03,32,0.00
2010,11,15,03,33,0.00
2010,11,15,03,34,0.00
2010,11,15,03,35,0.00
2010,11,15,03,36,0.00
2010,11,15,03,37,0.00
2010,11,15,03,38,0.00
2010,11,15,03,39,0.00
2010,11,15,03,40,0.00
2010,11,15,03,41,0.00
2010,11,15,03,42,0.00
2010,11,15,03,43,0.00
2010,11,15,03,44,0.00
2010,11,15,03,45,0.00
2010,11,15,03,46,0.00
2010,11,15,03,47,0.00
2010,11,15,03,48,0.00
2010,11,15,03,49,0.00
2010,11,15,03,50,0.00
2010,11,15,03,51,0.00
2010,11,15,03,52,0.00
2010,11,15,03,53,0.00
2010,11,15,03,54,0.00
2010,11,15,03,55,0.00
2010,11,15,03,56,0.00
2010,11,15,03,57,0.00
2010,11,15,03,58,0.00
2010,11,15,03,59,0.00
2010,11,15,04,00,0.00
2010,11,15,04,01,0.00
2010,11,15,04,02,0.00
2010,11,15,04,03,0.00
2010,11,15,04,04,0.00
2010,11,15,04,05,0.00
2010,11,15,04,06,0.00
2010,11,15,04,07,0.00
2010,11,15,04,08,4.80
2010,11,15,04,09,4.80
2010,11,15,04,10,3.20
2010,11,15,04,11,3.20
2010,11,15,04,12,3.20
2010,11,15,04,13,1.60
2010,11,15,04,14,0.00
2010,11,15,04,15,0.00
2010,11,15,04,16,0.00
2010,11,15,04,17,0.00
2010,11,15,04,18,0.00
2010,11,15,04,19,0.00
2010,11,15,04,20,0.00
2010,11,15,04,21,0.00
2010,11,15,04,22,0.00
2010,11,15,04,23,0.00
2010,11,15,04,24,0.00
2010,11,15,04,25,0.00
2010,11,15,04,26,0.00
2010,11,15,04,27,0.00
2010,11,15,04,28,0.00
2010,11,15,04,29,0.00
2010,11,15,04,30,0.00
2010,11,15,04,31,0.00
2010,11,15,04,32,0.00
2010,11,15,04,33,0.00
2010,11,15,04,34,0.00
2010,11,15,04,35,0.00
2010,11,15,04,36,0.00
2010,11,15,04,37,0.00
2010,11,15,04,38,0.00
2010,11,15,04,39,0.00
2010,11,15,04,40,0.00
2010,11,15,04,41,0.00
2010,11,15,04,42,0.00
2010,11,15,04,43,0.00
2010,11,15,04,44,0.00
2010,11,15,04,45,0.00
2010,11,15,04,46,0.00
2010,11,15,04,47,0.00
2010,11,15,04,48,0.00
2010,11,15,04,49,0.00
2010,11,15,04,50,0.00
2010,11,15,04,51,0.00
2010,11,15,04,52,0.00
2010,11,15,04,53,0.00
2010,11,15,04,54,0.00
2010,11,15,04,55,0.00
2010,11,15,04,56,0.00
2010,11,15,04,57,0.00
2010,11,15,04,58,0.00
2010,11,15,04,59,0.00
2010,11,15,05,00,0.00
2010,11,15,05,01,3.20
2010,11,15,05,02,3.20
2010,11,15,05,03,0.00
2010,11,15,05,04,0.00
2010,11,15,05,05,0.00
2010,11,15,05,06,0.00
2010,11,15,05,07,0.00
2010,11,15,05,08,0.00
2010,11,15,05,09,0.00
2010,11,15,05,10,0.00
2010,11,15,05,11,0.00
2010,11,15,05,12,0.00
2010,11,15,05,13,0.00
2010,11,15,05,14,0.00
2010,11,15,05,15,0.00
2010,11,15,05,16,0.00
2010,11,15,05,17,0.00
2010,11,15,05,18,0.00
2010,11,15,05,19,0.00
2010,11,15,05,20,0.00
2010,11,15,05,21,0.00
2010,11,15,05,22,0.00
2010,11,15,05,23,0.00
2010,11,15,05,24,0.00
2010,11,15,05,25,0.00
2010,11,15,05,26,0.00
2010,11,15,05,27,0.00
2010,11,15,05,28,0.00
2010,11,15,05,29,0.00
2010,11,15,05,30,0.00
2010,11,15,05,31,0.00
2010,11,15,05,32,0.00
2010,11,15,05,33,0.00
2010,11,15,05,34,0.00
2010,11,15,05,35,0.00
2010,11,15,05,36,0.00
2010,11,15,05,37,0.00
2010,11,15,05,38,0.00
2010,11,15,05,39,0.00
2010,11,15,05,40,0.00
2010,11,15,05,41,0.00
2010,11,15,05,42,0.00
2010,11,15,05,43,0.00
2010,11,15,05,44,0.00
2010,11,15,05,45,0.00
2010,11,15,05,46,0.00
2010,11,15,05,47,0.00
2010,11,15,05,48,0.00
2010,11,15,05,49,0.00
2010,11,15,05,50,0.00
2010,11,15,05,51,0.00
2010,11,15,05,52,0.00
2010,11,15,05,53,0.00
2010,11,15,05,54,0.00
2010,11,15,05,55,0.00
2010,11,15,05,56,0.00
2010,11,15,05,57,0.00
2010,11,15,05,58,0.00
2010,11,15,05,59,0.00
2010,11,15,06,00,0.00
2010,11,15,06,01,0.00
2010,11,15,06,02,0.00
2010,11,15,06,03,0.00
2010,11,15,06,04,0.00
2010,11,15,06,05,0.00
2010,11,15,06,06,0.00
2010,11,15,06,07,0.00
2010,11,15,06,08,0.00
2010,11,15,06,09,0.00
2010,11,15,06,10,0.00
2010,11,15,06,11,0.00
2010,11,15,06,12,0.00
2010,11,15,06,13,0.00
2010,11,15,06,14,0.00
2010,11,15,06,15,0.00
2010,11,15,06,16,0.00
2010,11,15,06,17,0.00
2010,11,15,06,18,0.00
2010,11,15,06,19,0.00
2010,11,15,06,20,0.00
2010,11,15,06,21,0.00
2010,11,15,06,22,0.00
2010,11,15,06,23,0.00
2010,11,15,06,24,0.00
2010,11,15,06,25,0.00
2010,11,15,06,26,0.00
2010,11,15,06,27,0.00
2010,11,15,06,28,0.00
2010,11,15,06,29,0.00
2010,11,15,06,30,0.00
2010,11,15,06,31,0.00
2010,11,15,06,32,0.00
2010,11,15,06,33,0.00
2010,11,15,06,34,0.00
2010,11,15,06,35,0.00
2010,11,15,06,36,0.00
2010,11,15,06,37,0.00
2010,11,15,06,38,0.00
2010,11,15,06,39,0.00
2010,11,15,06,40,0.00
2010,11,15,06,41,0.00
2010,11,15,06,42,3.20
2010,11,15,06,43,0.00
2010,11,15,06,44,0.00
2010,11,15,06,45,3.20
2010,11,15,06,46,3.20
2010,11,15,06,47,3.20
2010,11,15,06,48,4.80
2010,11,15,06,49,3.20
2010,11,15,06,50,1.60
2010,11,15,06,51,0.00
2010,11,15,06,52,3.20
2010,11,15,06,53,0.00
2010,11,15,06,54,0.00
2010,11,15,06,55,3.20
2010,11,15,06,56,3.20
2010,11,15,06,57,3.20
2010,11,15,06,58,1.60
2010,11,15,06,59,3.20
2010,11,15,07,00,4.80
2010,11,15,07,01,6.40
2010,11,15,07,02,3.20
2010,11,15,07,03,4.80
2010,11,15,07,04,4.80
2010,11,15,07,05,4.80
2010,11,15,07,06,6.40
2010,11,15,07,07,3.20
2010,11,15,07,08,4.80
2010,11,15,07,09,4.80
2010,11,15,07,10,4.80
2010,11,15,07,11,4.80
2010,11,15,07,12,6.40
2010,11,15,07,13,4.80
2010,11,15,07,14,3.20
2010,11,15,07,15,4.80
2010,11,15,07,16,4.80
2010,11,15,07,17,6.40
2010,11,15,07,18,4.80
2010,11,15,07,19,4.80
2010,11,15,07,20,6.40
2010,11,15,07,21,11.30
2010,11,15,07,22,8.10
2010,11,15,07,23,4.80
2010,11,15,07,24,0.00
2010,11,15,07,25,3.20
2010,11,15,07,26,4.80
2010,11,15,07,27,8.10
2010,11,15,07,28,6.40
2010,11,15,07,29,4.80
2010,11,15,07,30,4.80
2010,11,15,07,31,4.80
2010,11,15,07,32,0.00
2010,11,15,07,33,0.00
2010,11,15,07,34,4.80
2010,11,15,07,35,8.10
2010,11,15,07,36,6.40
2010,11,15,07,37,0.00
2010,11,15,07,38,3.20
2010,11,15,07,39,1.60
2010,11,15,07,40,4.80
2010,11,15,07,41,3.20
2010,11,15,07,42,6.40
2010,11,15,07,43,3.20
2010,11,15,07,44,1.60
2010,11,15,07,45,3.20
2010,11,15,07,46,4.80
2010,11,15,07,47,8.10
2010,11,15,07,48,8.10
2010,11,15,07,49,8.10
2010,11,15,07,50,8.10
2010,11,15,07,51,4.80
2010,11,15,07,52,0.00
2010,11,15,07,53,3.20
2010,11,15,07,54,6.40
2010,11,15,07,55,8.10
2010,11,15,07,56,8.10
2010,11,15,07,57,6.40
2010,11,15,07,58,9.60
2010,11,15,07,59,9.60
2010,11,15,08,00,4.80
2010,11,15,08,01,4.80
2010,11,15,08,02,4.80
2010,11,15,08,03,6.40
2010,11,15,08,04,11.30
2010,11,15,08,05,6.40
2010,11,15,08,06,6.40
2010,11,15,08,07,4.80
2010,11,15,08,08,9.60
2010,11,15,08,09,8.10
2010,11,15,08,10,3.20
2010,11,15,08,11,6.40
2010,11,15,08,12,6.40
2010,11,15,08,13,9.60
2010,11,15,08,14,6.40
2010,11,15,08,15,6.40
2010,11,15,08,16,8.10
2010,11,15,08,17,8.10
2010,11,15,08,18,8.10
2010,11,15,08,19,8.10
2010,11,15,08,20,8.10
2010,11,15,08,21,8.10
2010,11,15,08,22,11.30
2010,11,15,08,23,11.30
2010,11,15,08,24,16.10
2010,11,15,08,25,9.60
2010,11,15,08,26,6.40
2010,11,15,08,27,8.10
2010,11,15,08,28,9.60
2010,11,15,08,29,11.30
2010,11,15,08,30,6.40
2010,11,15,08,31,14.50
2010,11,15,08,32,11.30
2010,11,15,08,33,11.30
2010,11,15,08,34,16.10
2010,11,15,08,35,12.90
2010,11,15,08,36,11.30
2010,11,15,08,37,11.30
2010,11,15,08,38,11.30
2010,11,15,08,39,9.60
2010,11,15,08,40,9.60
2010,11,15,08,41,9.60
2010,11,15,08,42,12.90
2010,11,15,08,43,9.60
2010,11,15,08,44,11.30
2010,11,15,08,45,19.30
2010,11,15,08,46,14.50
2010,11,15,08,47,11.30
2010,11,15,08,48,16.10
2010,11,15,08,49,12.90
2010,11,15,08,50,8.10
2010,11,15,08,51,9.60
2010,11,15,08,52,14.50
2010,11,15,08,53,12.90
2010,11,15,08,54,8.10
2010,11,15,08,55,6.40
2010,11,15,08,56,9.60
2010,11,15,08,57,11.30
2010,11,15,08,58,11.30
2010,11,15,08,59,6.40
2010,11,15,09,00,9.60
2010,11,15,09,01,11.30
2010,11,15,09,02,8.10
2010,11,15,09,03,4.80
2010,11,15,09,04,8.10
2010,11,15,09,05,6.40
2010,11,15,09,06,4.80
2010,11,15,09,07,4.80
2010,11,15,09,08,9.60
2010,11,15,09,09,6.40
2010,11,15,09,10,9.60
2010,11,15,09,11,8.10
2010,11,15,09,12,8.10
2010,11,15,09,13,9.60
2010,11,15,09,14,11.30
2010,11,15,09,15,9.60
2010,11,15,09,16,9.60
2010,11,15,09,17,8.10
2010,11,15,09,18,3.20
2010,11,15,09,19,0.00
2010,11,15,09,20,0.00
2010,11,15,09,21,11.30
2010,11,15,09,22,8.10
2010,11,15,09,23,8.10
2010,11,15,09,24,6.40
2010,11,15,09,25,11.30
2010,11,15,09,26,11.30
2010,11,15,09,27,8.10
2010,11,15,09,28,4.80
2010,11,15,09,29,9.60
2010,11,15,09,30,8.10
2010,11,15,09,31,8.10
2010,11,15,09,32,9.60
2010,11,15,09,33,9.60
2010,11,15,09,34,12.90
2010,11,15,09,35,12.90
2010,11,15,09,36,16.10
2010,11,15,09,37,20.90
2010,11,15,09,38,14.50
2010,11,15,09,39,9.60
2010,11,15,09,40,14.50
2010,11,15,09,41,11.30
2010,11,15,09,42,14.50
2010,11,15,09,43,11.30
2010,11,15,09,44,4.80
2010,11,15,09,45,6.40
2010,11,15,09,46,8.10
2010,11,15,09,47,8.10
2010,11,15,09,48,6.40
2010,11,15,09,49,11.30
2010,11,15,09,50,14.50
2010,11,15,09,51,9.60
2010,11,15,09,52,14.50
2010,11,15,09,53,9.60
2010,11,15,09,54,12.90
2010,11,15,09,55,11.30
2010,11,15,09,56,9.60
2010,11,15,09,57,11.30
2010,11,15,09,58,11.30
2010,11,15,09,59,8.10
2010,11,15,10,00,11.30
2010,11,15,10,01,9.60
2010,11,15,10,02,9.60
2010,11,15,10,03,4.80
2010,11,15,10,04,8.10
2010,11,15,10,05,8.10
2010,11,15,10,06,14.50
2010,11,15,10,07,12.90
2010,11,15,10,08,9.60
2010,11,15,10,09,9.60
2010,11,15,10,10,11.30
2010,11,15,10,11,9.60
2010,11,15,10,12,8.10
2010,11,15,10,13,16.10
2010,11,15,10,14,14.50
2010,11,15,10,15,11.30
2010,11,15,10,16,8.10
2010,11,15,10,17,8.10
2010,11,15,10,18,9.60
2010,11,15,10,19,8.10
2010,11,15,10,20,9.60
2010,11,15,10,21,9.60
2010,11,15,10,22,11.30
2010,11,15,10,23,11.30
2010,11,15,10,24,16.10
2010,11,15,10,25,9.60
2010,11,15,10,26,9.60
2010,11,15,10,27,9.60
2010,11,15,10,28,6.40
2010,11,15,10,29,4.80
2010,11,15,10,30,6.40
2010,11,15,10,31,9.60
2010,11,15,10,32,9.60
2010,11,15,10,33,8.10
2010,11,15,10,34,6.40
2010,11,15,10,35,8.10
2010,11,15,10,36,12.90
2010,11,15,10,37,9.60
2010,11,15,10,38,16.10
2010,11,15,10,39,11.30
2010,11,15,10,40,9.60
2010,11,15,10,41,8.10
2010,11,15,10,42,9.60
2010,11,15,10,43,8.10
2010,11,15,10,44,9.60
2010,11,15,10,45,9.60
2010,11,15,10,46,12.90
2010,11,15,10,47,8.10
2010,11,15,10,48,9.60
2010,11,15,10,49,8.10
2010,11,15,10,50,11.30
2010,11,15,10,51,12.90
2010,11,15,10,52,20.90
2010,11,15,10,53,8.10
2010,11,15,10,54,19.30
2010,11,15,10,55,11.30
2010,11,15,10,56,16.10
2010,11,15,10,57,9.60
2010,11,15,10,58,9.60
2010,11,15,10,59,11.30
2010,11,15,11,00,12.90
2010,11,15,11,01,17.70
2010,11,15,11,02,9.60
2010,11,15,11,03,14.50
2010,11,15,11,04,12.90
2010,11,15,11,05,24.20
2010,11,15,11,06,19.30
2010,11,15,11,07,19.30
2010,11,15,11,08,20.90
2010,11,15,11,09,17.70
2010,11,15,11,10,17.70
2010,11,15,11,11,22.50
2010,11,15,11,12,16.10
2010,11,15,11,13,19.30
2010,11,15,11,14,22.50
2010,11,15,11,15,19.30
2010,11,15,11,16,17.70
2010,11,15,11,17,17.70
2010,11,15,11,18,20.90
2010,11,15,11,19,25.70
2010,11,15,11,20,20.90
2010,11,15,11,21,17.70
2010,11,15,11,22,19.30
2010,11,15,11,23,22.50
2010,11,15,11,24,14.50
2010,11,15,11,25,24.20
2010,11,15,11,26,25.70
2010,11,15,11,27,22.50
2010,11,15,11,28,19.30
2010,11,15,11,29,22.50
2010,11,15,11,30,19.30
2010,11,15,11,31,19.30
2010,11,15,11,32,25.70
2010,11,15,11,33,25.70
2010,11,15,11,34,22.50
2010,11,15,11,35,20.90
2010,11,15,11,36,24.20
2010,11,15,11,37,20.90
2010,11,15,11,38,20.90
2010,11,15,11,39,27.40
2010,11,15,11,40,24.20
2010,11,15,11,41,30.60
2010,11,15,11,42,22.50
2010,11,15,11,43,25.70
2010,11,15,11,44,25.70
2010,11,15,11,45,30.60
2010,11,15,11,46,30.60
2010,11,15,11,47,20.90
2010,11,15,11,48,19.30
2010,11,15,11,49,29.00
2010,11,15,11,50,30.60
2010,11,15,11,51,20.90
2010,11,15,11,52,20.90
2010,11,15,11,53,25.70
2010,11,15,11,54,19.30
2010,11,15,11,55,22.50
2010,11,15,11,56,17.70
2010,11,15,11,57,17.70
2010,11,15,11,58,17.70
2010,11,15,11,59,20.90
2010,11,15,12,00,16.10
2010,11,15,12,01,20.90
2010,11,15,12,02,14.50
2010,11,15,12,03,19.30
2010,11,15,12,04,17.70
2010,11,15,12,05,16.10
2010,11,15,12,06,19.30
2010,11,15,12,07,16.10
2010,11,15,12,08,24.20
2010,11,15,12,09,22.50
2010,11,15,12,10,17.70
2010,11,15,12,11,9.60
2010,11,15,12,12,16.10
2010,11,15,12,13,12.90
2010,11,15,12,14,11.30
2010,11,15,12,15,19.30
2010,11,15,12,16,9.60
2010,11,15,12,17,16.10
2010,11,15,12,18,17.70
2010,11,15,12,19,14.50
2010,11,15,12,20,9.60
2010,11,15,12,21,14.50
2010,11,15,12,22,14.50
2010,11,15,12,23,9.60
2010,11,15,12,24,8.10
2010,11,15,12,25,6.40
2010,11,15,12,26,9.60
2010,11,15,12,27,9.60
2010,11,15,12,28,11.30
2010,11,15,12,29,6.40
2010,11,15,12,30,4.80
2010,11,15,12,31,4.80
2010,11,15,12,32,6.40
2010,11,15,12,33,8.10
2010,11,15,12,34,8.10
2010,11,15,12,35,6.40
2010,11,15,12,36,9.60
2010,11,15,12,37,9.60
2010,11,15,12,38,8.10
2010,11,15,12,39,14.50
2010,11,15,12,40,14.50
2010,11,15,12,41,9.60
2010,11,15,12,42,8.10
2010,11,15,12,43,9.60
2010,11,15,12,44,8.10
2010,11,15,12,45,14.50
2010,11,15,12,46,16.10
2010,11,15,12,47,11.30
2010,11,15,12,48,16.10
2010,11,15,12,49,14.50
2010,11,15,12,50,16.10
2010,11,15,12,51,14.50
2010,11,15,12,52,16.10
2010,11,15,12,53,11.30
2010,11,15,12,54,16.10
2010,11,15,12,55,27.40
2010,11,15,12,56,19.30
2010,11,15,12,57,20.90
2010,11,15,12,58,8.10
2010,11,15,12,59,8.10
2010,11,15,13,00,8.10
2010,11,15,13,01,12.90
2010,11,15,13,02,17.70
2010,11,15,13,03,16.10
2010,11,15,13,04,17.70
2010,11,15,13,05,22.50
2010,11,15,13,06,17.70
2010,11,15,13,07,16.10
2010,11,15,13,08,14.50
2010,11,15,13,09,16.10
2010,11,15,13,10,20.90
2010,11,15,13,11,17.70
2010,11,15,13,12,24.20
2010,11,15,13,13,16.10
2010,11,15,13,14,17.70
2010,11,15,13,15,19.30
2010,11,15,13,16,14.50
2010,11,15,13,17,22.50
2010,11,15,13,18,12.90
2010,11,15,13,19,24.20
2010,11,15,13,20,9.60
2010,11,15,13,21,9.60
2010,11,15,13,22,20.90
2010,11,15,13,23,12.90
2010,11,15,13,24,17.70
2010,11,15,13,25,14.50
2010,11,15,13,26,20.90
2010,11,15,13,27,11.30
2010,11,15,13,28,9.60
2010,11,15,13,29,19.30
2010,11,15,13,30,19.30
2010,11,15,13,31,12.90
2010,11,15,13,32,20.90
2010,11,15,13,33,17.70
2010,11,15,13,34,17.70
2010,11,15,13,35,16.10
2010,11,15,13,36,8.10
2010,11,15,13,37,4.80
2010,11,15,13,38,4.80
2010,11,15,13,39,6.40
2010,11,15,13,40,9.60
2010,11,15,13,41,9.60
2010,11,15,13,42,4.80
2010,11,15,13,43,16.10
2010,11,15,13,44,6.40
2010,11,15,13,45,9.60
2010,11,15,13,46,8.10
2010,11,15,13,47,9.60
2010,11,15,13,48,9.60
2010,11,15,13,49,8.10
2010,11,15,13,50,6.40
2010,11,15,13,51,6.40
2010,11,15,13,52,11.30
2010,11,15,13,53,9.60
2010,11,15,13,54,11.30
2010,11,15,13,55,9.60
2010,11,15,13,56,11.30
2010,11,15,13,57,11.30
2010,11,15,13,58,9.60
2010,11,15,13,59,12.90
2010,11,15,14,00,9.60
2010,11,15,14,01,9.60
2010,11,15,14,02,8.10
2010,11,15,14,03,4.80
2010,11,15,14,04,3.20
2010,11,15,14,05,6.40
2010,11,15,14,06,6.40
2010,11,15,14,07,14.50
2010,11,15,14,08,9.60
2010,11,15,14,09,9.60
2010,11,15,14,10,8.10
2010,11,15,14,11,9.60
2010,11,15,14,12,8.10
2010,11,15,14,13,4.80
2010,11,15,14,14,4.80
2010,11,15,14,15,4.80
2010,11,15,14,16,4.80
2010,11,15,14,17,9.60
2010,11,15,14,18,8.10
2010,11,15,14,19,4.80
2010,11,15,14,20,3.20
2010,11,15,14,21,1.60
2010,11,15,14,22,4.80
2010,11,15,14,23,3.20
2010,11,15,14,24,4.80
2010,11,15,14,25,8.10
2010,11,15,14,26,8.10
2010,11,15,14,27,11.30
2010,11,15,14,28,4.80
2010,11,15,14,29,6.40
2010,11,15,14,30,6.40
2010,11,15,14,31,4.80
2010,11,15,14,32,3.20
2010,11,15,14,33,6.40
2010,11,15,14,34,6.40
2010,11,15,14,35,6.40
2010,11,15,14,36,8.10
2010,11,15,14,37,8.10
2010,11,15,14,38,8.10
2010,11,15,14,39,4.80
2010,11,15,14,40,11.30
2010,11,15,14,41,9.60
2010,11,15,14,42,6.40
2010,11,15,14,43,9.60
2010,11,15,14,44,9.60
2010,11,15,14,45,11.30
2010,11,15,14,46,12.90
2010,11,15,14,47,14.50
2010,11,15,14,48,6.40
2010,11,15,14,49,9.60
2010,11,15,14,50,9.60
2010,11,15,14,51,9.60
2010,11,15,14,52,8.10
2010,11,15,14,53,6.40
2010,11,15,14,54,6.40
2010,11,15,14,55,8.10
2010,11,15,14,56,6.40
2010,11,15,14,57,8.10
2010,11,15,14,58,6.40
2010,11,15,14,59,6.40
2010,11,15,15,00,11.30
2010,11,15,15,01,11.30
2010,11,15,15,02,11.30
2010,11,15,15,03,9.60
2010,11,15,15,04,9.60
2010,11,15,15,05,11.30
2010,11,15,15,06,8.10
2010,11,15,15,07,8.10
2010,11,15,15,08,4.80
2010,11,15,15,09,3.20
2010,11,15,15,10,1.60
2010,11,15,15,11,0.00
2010,11,15,15,12,0.00
2010,11,15,15,13,3.20
2010,11,15,15,14,1.60
2010,11,15,15,15,0.00
2010,11,15,15,16,3.20
2010,11,15,15,17,8.10
2010,11,15,15,18,8.10
2010,11,15,15,19,4.80
2010,11,15,15,20,4.80
2010,11,15,15,21,4.80
2010,11,15,15,22,4.80
2010,11,15,15,23,8.10
2010,11,15,15,24,8.10
2010,11,15,15,25,4.80
2010,11,15,15,26,8.10
2010,11,15,15,27,9.60
2010,11,15,15,28,6.40
2010,11,15,15,29,16.10
2010,11,15,15,30,12.90
2010,11,15,15,31,17.70
2010,11,15,15,32,11.30
2010,11,15,15,33,11.30
2010,11,15,15,34,9.60
2010,11,15,15,35,6.40
2010,11,15,15,36,9.60
2010,11,15,15,37,16.10
2010,11,15,15,38,14.50
2010,11,15,15,39,9.60
2010,11,15,15,40,11.30
2010,11,15,15,41,9.60
2010,11,15,15,42,6.40
2010,11,15,15,43,4.80
2010,11,15,15,44,4.80
2010,11,15,15,45,4.80
2010,11,15,15,46,4.80
2010,11,15,15,47,6.40
2010,11,15,15,48,8.10
2010,11,15,15,49,9.60
2010,11,15,15,50,8.10
2010,11,15,15,51,8.10
2010,11,15,15,52,12.90
2010,11,15,15,53,9.60
2010,11,15,15,54,4.80
2010,11,15,15,55,11.30
2010,11,15,15,56,8.10
2010,11,15,15,57,0.00
2010,11,15,15,58,0.00
2010,11,15,15,59,3.20
2010,11,15,16,00,4.80
2010,11,15,16,01,4.80
2010,11,15,16,02,0.00
2010,11,15,16,03,9.60
2010,11,15,16,04,11.30
2010,11,15,16,05,9.60
2010,11,15,16,06,0.00
2010,11,15,16,07,4.80
2010,11,15,16,08,4.80
2010,11,15,16,09,1.60
2010,11,15,16,10,3.20
2010,11,15,16,11,3.20
2010,11,15,16,12,3.20
2010,11,15,16,13,8.10
2010,11,15,16,14,8.10
2010,11,15,16,15,4.80
2010,11,15,16,16,6.40
2010,11,15,16,17,6.40
2010,11,15,16,18,6.40
2010,11,15,16,19,6.40
2010,11,15,16,20,6.40
2010,11,15,16,21,8.10
2010,11,15,16,22,4.80
2010,11,15,16,23,4.80
2010,11,15,16,24,6.40
2010,11,15,16,25,6.40
2010,11,15,16,26,4.80
2010,11,15,16,27,1.60
2010,11,15,16,28,4.80
2010,11,15,16,29,4.80
2010,11,15,16,30,6.40
2010,11,15,16,31,4.80
2010,11,15,16,32,8.10
2010,11,15,16,33,6.40
2010,11,15,16,34,4.80
2010,11,15,16,35,4.80
2010,11,15,16,36,4.80
2010,11,15,16,37,1.60
2010,11,15,16,38,4.80
2010,11,15,16,39,3.20
2010,11,15,16,40,6.40
2010,11,15,16,41,8.10
2010,11,15,16,42,11.30
2010,11,15,16,43,11.30
2010,11,15,16,44,9.60
2010,11,15,16,45,3.20
2010,11,15,16,46,3.20
2010,11,15,16,47,0.00
2010,11,15,16,48,0.00
2010,11,15,16,49,3.20
2010,11,15,16,50,6.40
2010,11,15,16,51,4.80
2010,11,15,16,52,0.00
2010,11,15,16,53,8.10
2010,11,15,16,54,8.10
2010,11,15,16,55,4.80
2010,11,15,16,56,3.20
2010,11,15,16,57,0.00
2010,11,15,16,58,3.20
2010,11,15,16,59,4.80
2010,11,15,17,00,8.10
2010,11,15,17,01,8.10
2010,11,15,17,02,8.10
2010,11,15,17,03,6.40
2010,11,15,17,04,3.20
2010,11,15,17,05,0.00
2010,11,15,17,06,0.00
2010,11,15,17,07,0.00
2010,11,15,17,08,0.00
2010,11,15,17,09,8.10
2010,11,15,17,10,14.50
2010,11,15,17,11,11.30
2010,11,15,17,12,11.30
2010,11,15,17,13,17.70
2010,11,15,17,14,8.10
2010,11,15,17,15,8.10
2010,11,15,17,16,11.30
2010,11,15,17,17,8.10
2010,11,15,17,18,8.10
2010,11,15,17,19,9.60
2010,11,15,17,20,8.10
2010,11,15,17,21,6.40
2010,11,15,17,22,6.40
2010,11,15,17,23,4.80
2010,11,15,17,24,0.00
2010,11,15,17,25,3.20
2010,11,15,17,26,4.80
2010,11,15,17,27,4.80
2010,11,15,17,28,8.10
2010,11,15,17,29,8.10
2010,11,15,17,30,6.40
2010,11,15,17,31,4.80
2010,11,15,17,32,3.20
2010,11,15,17,33,4.80
2010,11,15,17,34,3.20
2010,11,15,17,35,0.00
2010,11,15,17,36,1.60
2010,11,15,17,37,1.60
2010,11,15,17,38,3.20
2010,11,15,17,39,4.80
2010,11,15,17,40,3.20
2010,11,15,17,41,4.80
2010,11,15,17,42,8.10
2010,11,15,17,43,8.10
2010,11,15,17,44,6.40
2010,11,15,17,45,4.80
2010,11,15,17,46,9.60
2010,11,15,17,47,8.10
2010,11,15,17,48,8.10
2010,11,15,17,49,6.40
2010,11,15,17,50,6.40
2010,11,15,17,51,8.10
2010,11,15,17,52,8.10
2010,11,15,17,53,8.10
2010,11,15,17,54,11.30
2010,11,15,17,55,9.60
2010,11,15,17,56,6.40